Air Force Academy, CO

10:32 PM MDT on June 28, 2017 (GMT -0600)
Usaf Academy

Weather History for KAFF - November, 2012

Change the Weather History Date:

Friday, November 30, 2012

  Actual Average Record
Temperature  
Mean Temperature 44 °F -  
Max Temperature 59 °F 44 °F 64 °F (1999)
Min Temperature 28 °F 22 °F -7 °F (2006)
Degree Days  
Heating Degree Days 22    
Moisture  
Dew Point 14 °F    
Average Humidity 35    
Maximum Humidity 55    
Minimum Humidity 16    
Precipitation  
Precipitation 0.00 in - - ()
Sea Level Pressure  
Sea Level Pressure 29.97 in    
Wind  
Wind Speed 6 mph (ESE)    
Max Wind Speed 10 mph    
Max Gust Speed -    
Visibility 10 miles    
Events      
Averages and records for this station are not official NWS values.
T = Trace of Precipitation, MM = Missing Value Source: NWS Daily Summary

Daily Weather History Graph

Daily Weather History Graph

Search for Another Location

Airport or City:

Trip Planner

Search our weather history database for the weather conditions in past years. The results will help you decide how hot, cold, wet, or windy it might be!

Date:

Astronomy

Nov. 30, 2012 Rise Set
Actual Time 6:58 AM MST 4:37 PM MST
Civil Twilight 6:29 AM MST 5:06 PM MST
Nautical Twilight 5:56 AM MST 5:40 PM MST
Astronomical Twilight 5:23 AM MST 6:12 PM MST
Moon 6:34 PM MST (11/30) 8:32 AM MST (11/30)
Length of Visible Light 10h 37m
Length of Day
9h 38m
Waning Gibbous, 96% of the Moon is Illuminated
Nov 30
Waning Gibbous
Dec 6
Last Quarter
Dec 13
New
Dec 19
First Quarter
Dec 28
Full

Hourly Weather History & Observations

Time (MST) Temp. Windchill Dew Point Humidity Pressure Visibility Wind Dir Wind Speed Gust Speed Precip Events Conditions
12:58 AM 34.7 °F 30.6 °F 12.9 °F 41% 30.01 in 10.0 mi SE 4.6 mph - N/A   Clear
1:58 AM 32.7 °F 27.3 °F 13.3 °F 45% 30.02 in 10.0 mi NNE 5.8 mph - N/A   Clear
2:58 AM 31.3 °F 23.9 °F 13.5 °F 48% 30.01 in 10.0 mi NNE 8.1 mph - N/A   Clear
3:58 AM 28.0 °F 21.7 °F 13.6 °F 55% 30.04 in 10.0 mi NNW 5.8 mph - N/A   Clear
4:58 AM 30.0 °F 24.1 °F 14.9 °F 53% 30.06 in 10.0 mi NE 5.8 mph - N/A   Clear
5:58 AM 29.5 °F 23.4 °F 15.1 °F 55% 30.11 in 10.0 mi NNE 5.8 mph - N/A   Clear
6:58 AM 30.6 °F 23.8 °F 16.0 °F 55% 30.12 in 10.0 mi NNE 6.9 mph - N/A   Clear
7:58 AM 32.9 °F 28.5 °F 16.0 °F 50% 30.15 in 10.0 mi NNE 4.6 mph - N/A   Clear
8:58 AM 38.1 °F - 18.0 °F 44% 30.01 in 10.0 mi Calm Calm - N/A   Clear
9:58 AM 50.4 °F - 14.9 °F 24% 29.97 in 10.0 mi SSE 10.4 mph - N/A   Clear
10:58 AM 53.2 °F - 13.3 °F 20% 29.89 in 10.0 mi South 8.1 mph - N/A   Clear
11:58 AM 54.5 °F - 13.3 °F 20% 29.90 in 10.0 mi South 4.6 mph - N/A   Clear
12:58 PM 56.7 °F - 13.8 °F 18% 29.87 in 10.0 mi South 4.6 mph - N/A   Clear
1:58 PM 59.5 °F - 13.5 °F 16% 29.85 in 10.0 mi SSE 6.9 mph - N/A   Clear
2:58 PM 59.9 °F - 14.4 °F 17% 29.84 in 10.0 mi SSW 10.4 mph - N/A   Clear
3:58 PM 56.8 °F - 15.1 °F 19% 29.88 in 10.0 mi South 5.8 mph - N/A   Clear
4:58 PM 52.3 °F - 14.7 °F 22% 29.90 in 10.0 mi SW 8.1 mph - N/A   Clear
5:58 PM 45.5 °F - 12.6 °F 26% 29.90 in 10.0 mi Variable 1.2 mph - N/A   Clear
6:58 PM 41.2 °F 39.2 °F 13.1 °F 32% 29.91 in 10.0 mi Variable 3.5 mph - N/A   Clear